Location: Provincia di Roma
(41.9667°N, 12.6667°E)
Time: 12:36:57
(UTC+00:00)

Daily predictions for brighter satellites

Satellite Brightness Start Highest point End
(mag) Time Altitude Azimuth Time Altitude Azimuth Time Altitude Azimuth
Cosmos 2058 Rocket 3.7 16:42:34 10° NNW 16:47:04 64° W 16:51:31 10° S
SL-24 R/B 4.5 16:43:33 10° S 16:48:01 81° WSW 16:52:58 10° NNW
Cosmos 1626 Rocket 3.6 16:44:26 10° S 16:48:47 65° E 16:53:12 10° NNE
Cosmos 1455 2.2 16:45:07 10° N 16:48:59 82° E 16:52:49 10° S
Cosmos 405 4.2 16:46:31 10° NNE 16:49:19 22° ENE 16:52:05 10° SE
Cosmos 1092 Rocket 4.2 16:43:33 10° SSE 16:49:29 51° E 16:55:24 10° NNE
Cosmos 1898 Rocket 3.5 16:46:54 10° S 16:52:08 74° ESE 16:57:22 10° NNE
Cosmos 923 Rocket 4.3 16:50:00 10° NNW 16:55:20 79° WSW 17:00:36 10° SSE
Nadezhda 4 Rocket 4.1 16:52:00 10° S 16:58:14 82° W 17:04:26 10° N
CZ-2C R/B 4.3 16:56:02 10° ENE 16:58:39 13° E 17:01:15 10° ESE
Cosmos 1680 Rocket 3.5 16:54:23 10° NNW 16:59:38 86° ENE 17:04:50 10° SSE
Cosmos 1328 3.9 16:57:11 10° S 17:01:04 52° E 17:04:56 10° NNE
CZ-2D R/B 3.5 17:00:27 10° SE 17:04:06 44° ENE 17:07:44 10° N
CZ-4B R/B 1.3 17:02:35 10° NNE 17:05:50 60° E 17:08:58 10° S
MOS 1 Rocket 3.3 17:03:26 10° NNE 17:07:36 47° E 17:11:49 10° S
Meteor 2-8 Rocket 4.5 17:04:06 10° N 17:10:08 59° E 17:16:10 10° SSE
Cosmos-2242 3.7 17:07:11 10° NNE 17:11:03 32° ENE 17:14:55 10° SE
NOSS 3-1 (C) 4.2 17:06:17 10° NW 17:13:58 86° NE 17:22:49 10° SE
Cosmos 1937 Rocket 3.5 17:09:28 10° SSW 17:14:47 85° ESE 17:20:08 10° NNE
COSMO-SKYMED 1 2.5 17:10:38 10° NNE 17:14:59 73° E 17:19:19 10° S
Cosmos 1758 Rocket 3.8 17:11:13 10° SSE 17:15:29 50° E 17:19:51 10° NNE
Cosmos 2098 Rocket 4.4 17:08:50 10° SSE 17:16:01 58° E 17:23:05 10° NNE
BREEZE-M DEB (TANK) 3.6 17:14:37 10° NW 17:16:19 19° NNE 17:17:14 16° NE
Aureole 3 4.2 17:15:47 10° NNW 17:18:38 39° W 17:21:27 10° SSW
OE (NEXTSAT) 4.3 17:15:58 10° WNW 17:19:26 87° SSW 17:22:22 14° ESE
USA 290 2.6 17:20:05 10° N 17:23:06 37° ENE 17:26:05 10° SE
CZ-4 R/B 4.4 17:19:57 10° SSE 17:24:02 67° ENE 17:28:11 10° N
USA 276 4.2 17:24:22 10° SSE 17:26:07 14° SE 17:26:35 14° ESE
H-2A R/B 2.3 17:21:42 10° SE 17:26:27 43° ENE 17:31:21 10° N
Cosmos 1833 Rocket 2.7 17:21:38 10° NNW 17:27:11 57° ENE 17:32:42 10° SE
Cosmos 1939 Rocket 3.6 17:24:47 10° S 17:28:49 57° W 17:32:48 10° NNW
Helios 1A Rocket 3.6 17:25:26 10° SE 17:29:06 32° ENE 17:32:48 10° N
H-2A R/B 4.0 17:28:12 10° N 17:31:58 29° WNW 17:35:39 10° SW
Cosmos 1602 Rocket 4.3 17:28:05 10° SSW 17:32:21 56° W 17:36:41 10° N
Cosmos 2026 Rocket 4.0 17:27:16 10° S 17:33:24 88° E 17:39:41 10° N
Feng Yun 1-1 Rocket 4.4 17:28:31 10° S 17:33:59 79° WSW 17:39:38 10° NNW
Cosmos 2344 4.4 17:24:31 10° NNW 17:34:03 70° NE 17:47:22 10° SE
USA 229 DEB 3.9 17:27:59 10° NW 17:35:23 86° NE 17:43:09 10° SE
USA 229 3.9 17:28:05 10° NW 17:35:30 85° NE 17:43:15 10° SE
CZ-3B R/B 2.5 17:33:06 10° NW 17:36:06 60° NE 17:45:56 10° ESE
SJ 16-02 4.1 17:33:30 10° W 17:36:10 16° WNW 17:38:51 10° NNW
YAOGAN 1 2.6 17:33:52 10° SSE 17:38:04 55° ENE 17:42:18 10° N
SJ-11-01 4.4 17:35:22 10° SSE 17:39:52 50° ENE 17:44:23 10° N
Meteor 2-15 Rocket 4.5 17:34:46 10° N 17:40:50 56° ENE 17:46:51 10° SSE
Cosmos 1689 Rocket 1.8 17:41:34 29° NNE 17:42:47 63° E 17:45:35 10° S
Cosmos 1553 Rocket 4.0 17:37:35 10° N 17:43:56 61° E 17:50:08 10° SSE
Cosmos 1943 Rocket 4.1 17:41:22 10° SE 17:41:41 11° SE 17:41:41 11° SE
Aureole 3 Rocket 2.9 17:41:03 10° NNW 17:44:25 74° W 17:48:43 10° S
COSMOS 2406 3.2 17:40:45 10° NNW 17:46:34 88° WSW 17:52:18 10° SSE
Cosmos 2082 Rocket 2.5 17:41:29 10° NNW 17:46:59 45° ENE 17:51:40 14° SE
Cosmos 1825 Rocket 3.4 17:42:58 10° S 17:47:20 82° E 17:51:47 10° N
IRS-1C Rocket 4.2 17:42:16 10° S 17:47:31 80° WSW 17:52:48 10° NNW
Meteor 1-27 4.1 17:45:10 10° N 17:50:44 63° ENE 17:56:13 10° SSE
X-37B 0.5 17:47:50 10° WNW 17:51:02 81° NNE 17:51:36 56° E
NOSS 3-1 (A) 4.1 17:43:24 10° NW 17:51:08 90° SW 17:59:59 10° SSE
ISS -1.7 17:51:29 10° NW 17:53:44 16° N 17:53:50 16° N
Okean O Rocket 4.5 17:50:28 10° SW 17:53:45 20° W 17:57:01 10° NW
NOAA 15 4.5 17:49:48 10° SSE 17:55:03 84° ENE 18:00:22 10° NNW
CZ-4 R/B 1.5 17:53:45 10° S 17:57:47 74° WSW 18:01:46 10° NNW
Iridium 4 Rocket 4.0 17:56:44 10° N 18:01:57 58° W 18:06:40 10° SSW
CSL-04 Rocket 3.7 17:56:41 10° SSE 18:02:01 60° ENE 18:07:27 10° N
ERS-2 2.9 17:59:27 10° N 18:03:00 51° WNW 18:06:31 10° SSW
Okean-O 2.8 18:00:49 10° S 18:05:13 73° WSW 18:09:41 10° NNW
S3M 3.8 18:04:18 10° N 18:10:25 67° E 18:16:30 10° SSE
Cosmos 1346 Rocket 3.7 18:06:42 10° SSW 18:10:30 48° WNW 18:14:21 10° N
Cosmos 1655 Rocket 3.9 18:04:24 10° S 18:10:32 66° E 18:16:42 10° NNE
Cosmos 2278 Rocket 2.9 18:05:49 10° SW 18:11:20 53° WNW 18:16:55 10° NNE
CZ-2C R/B 4.5 18:08:41 10° SSW 18:13:49 42° W 18:19:13 10° NNW
Cosmos 1953 Rocket 3.6 18:09:31 10° S 18:13:51 79° W 18:17:58 11° N
Cosmos 2292 Rocket 3.6 18:13:34 10° S 18:18:41 83° W 18:20:40 30° N
Cosmos 1892 3.7 18:15:07 10° S 18:17:22 35° S 18:17:22 35° S
Cosmos 44 Rocket 3.3 18:16:47 10° SW 18:21:41 83° WNW 18:23:19 44° NNE
ARGOS 3.2 18:21:53 10° S 18:27:14 77° WSW 18:32:38 10° NNW
Meteor 2-2 Rocket 4.2 18:26:00 10° N 18:31:58 67° ENE 18:34:20 38° SSE
CZ-2C R/B 2.7 18:33:56 10° NNE 18:39:33 83° WNW 18:45:10 10° SSW
Cosmos 468 4.5 18:34:33 10° NNW 18:39:50 82° WSW 18:41:13 50° S
Milstar 3 4.3 18:36:36 10° SW 18:43:07 22° S 18:44:24 21° SSE
Cosmos 494 Rocket 4.4 18:38:39 10° NNW 18:42:29 50° N 18:42:29 50° N
Cosmos 2150 Rocket 4.4 18:38:56 10° SSW 18:44:01 60° WNW 18:45:58 36° N
Cosmos 1048 Rocket 4.1 18:43:40 10° NNW 18:48:47 69° WSW 18:49:37 58° SSW
Cosmos 2297 3.6 18:46:08 10° SSW 18:51:24 78° SSW 18:51:24 78° SSW
H-2A R/B 4.3 19:02:08 10° SW 19:06:04 23° W 19:10:07 10° NW
Cosmos 1125 Rocket 4.2 19:03:41 10° SW 19:08:41 50° WNW 19:08:41 50° WNW
USA 267 4.5 19:19:53 29° S 19:19:53 29° S 19:23:02 10° SSW
Cosmos 1943 Rocket 4.1 19:21:42 10° SSW 19:23:18 20° SSW 19:23:18 20° SSW
Cosmos 2082 Rocket 4.1 19:26:07 10° NW 19:30:47 26° WSW 19:33:41 17° SW
